DW6455 Weather Reports


time (UTC)temp
C
wind
direction
speed
KPH
gust
KPH
rain 1hr
cm
rain 24hr
cm
rain mn
cm
humidity
%
barometer
mb
20260506102531 10 270 12.9 27.4 0.00 0.03 0.00 36 1011.3
20260506101531 10 270 8.0 24.1 0.00 0.03 0.00 37 1011.2
20260506100531 10 270 11.3 19.3 0.00 0.03 0.00 38 1011.1
20260506095530 10 248 8.0 19.3 0.00 0.03 0.00 37 1011.0
20260506094531 10 293 8.0 29.0 0.00 0.03 0.00 41 1011.0
20260506093532 9 293 4.8 17.7 0.00 0.03 0.00 44 1010.9
20260506092531 9 315 6.4 20.9 0.00 0.03 0.00 42 1011.0
20260506091551 8 293 12.9 24.1 0.00 0.03 0.00 43 1010.9
20260506090530 8 293 8.0 20.9 0.00 0.03 0.00 41 1010.9
20260506085531 8 293 8.0 24.1 0.00 0.03 0.00 44 1010.9
20260506084530 8 270 12.9 25.7 0.00 0.03 0.00 43 1010.9
20260506083530 8 270 9.7 17.7 0.00 0.03 0.00 45 1011.0
20260506082531 8 270 8.0 20.9 0.00 0.03 0.00 46 1010.8
20260506081531 8 270 4.8 17.7 0.00 0.03 0.00 49 1010.6
20260506080529 7 293 8.0 25.7 0.00 0.03 0.00 48 1010.6
20260506072531 7 270 9.7 20.9 0.00 0.03 0.00 51 1010.3
20260506071530 7 248 9.7 22.5 0.00 0.03 0.00 54 1010.3
20260506070531 7 270 9.7 20.9 0.00 0.03 0.00 54 1010.2
20260506061530 6 293 4.8 14.5 0.00 0.03 0.00 61 1009.9
20260506060551 6 293 6.4 19.3 0.00 0.03 0.00 60 1009.8
20260506050530 5 270 1.6 9.7 0.00 0.05 0.00 77 1009.2
20260506044531 3 0.0 11.3 0.00 0.05 0.00 78 1009.1
20260506043531 3 0.0 4.8 0.00 0.08 0.00 76 1009.0
20260506042531 2 0.0 4.8 0.00 0.10 0.00 74 1008.9
20260506041531 2 293 1.6 6.4 0.00 0.10 0.00 73 1008.9
20260506040531 2 0.0 4.8 0.00 0.10 0.00 72 1008.7
20260506035532 1 0.0 6.4 0.00 0.13 0.00 68 1008.6
20260506034531 1 0.0 4.8 0.00 0.13 0.00 64 1008.5
20260506033532 1 293 1.6 6.4 0.00 0.15 0.00 59 1008.4
20260506032531 0 293 1.6 11.3 0.00 0.15 0.00 54 1008.2
20260506031531 0 0.0 3.2 0.00 0.18 0.00 58 1008.1
20260506030533 0 0.0 0.0 0.00 0.20 0.00 61 1008.0
20260506025552 0 0.0 4.8 0.00 0.20 0.00 59 1007.9
20260506024553 0 270 1.6 9.7 0.00 0.20 0.00 56 1007.8
20260506023533 0 270 1.6 9.7 0.00 0.20 0.00 56 1007.7
20260506022552 0 270 4.8 14.5 0.00 0.20 0.00 56 1007.6
20260506021533 0 248 4.8 11.3 0.00 0.20 0.00 60 1007.6
20260506020533 0 270 3.2 12.9 0.00 0.20 0.00 64 1007.5
20260506015531 0 293 1.6 6.4 0.00 0.20 0.00 65 1007.4
20260506014531 0 293 3.2 6.4 0.00 0.20 0.00 67 1007.4
20260506013530 0 293 3.2 9.7 0.00 0.20 0.00 68 1007.2
20260506012533 0 270 3.2 6.4 0.00 0.20 0.00 70 1007.0
20260506011611 0 270 1.6 6.4 0.00 0.20 0.00 72 1007.0
20260506010531 0 270 1.6 3.2 0.00 0.20 0.00 74 1007.0
20260506005531 0 270 3.2 6.4 0.00 0.20 0.00 74 1006.9
20260506004532 0 270 1.6 6.4 0.00 0.20 0.00 76 1006.8
20260506003531 0 0.0 3.2 0.00 0.20 0.00 78 1006.8
20260506002531 1 0.0 4.8 0.00 0.20 0.00 79 1006.7
20260506001531 1 0.0 4.8 0.00 0.20 0.00 79 1006.7
20260506000531 1 270 1.6 9.7 0.00 0.20 0.00 79 1006.5
20260505235531 1 0.0 3.2 0.00 0.20 0.00 79 1006.4
20260505234532 1 293 3.2 12.9 0.00 0.20 0.00 79 1006.4
20260505233531 1 293 3.2 9.7 0.00 0.20 0.00 79 1006.5
20260505232532 1 270 8.0 12.9 0.00 0.20 0.00 79 1006.5
20260505231532 1 270 4.8 11.3 0.00 0.20 0.00 79 1006.4
20260505230531 1 293 4.8 16.1 0.00 0.20 0.00 78 1006.4
20260505225531 2 293 3.2 16.1 0.00 0.20 0.00 77 1006.3
20260505224532 2 315 4.8 14.5 0.00 0.20 0.00 76 1006.3
20260505223612 2 293 3.2 8.0 0.00 0.20 0.00 75 1006.1
20260505222531 2 293 6.4 14.5 0.00 0.20 0.00 74 1006.2
20260505221531 2 293 8.0 17.7 0.00 0.20 0.00 74 1006.2
20260505220551 2 270 6.4 16.1 0.00 0.20 0.00 73 1006.2
20260505215530 2 270 4.8 11.3 0.00 0.20 0.00 72 1006.1
20260505214531 3 270 6.4 14.5 0.00 0.20 0.00 72 1006.1
20260505213530 3 293 9.7 17.7 0.00 0.20 0.00 71 1006.0
20260505212531 3 293 6.4 19.3 0.00 0.20 0.00 71 1005.9
20260505211531 3 293 8.0 17.7 0.00 0.20 0.00 71 1005.9
20260505210532 3 293 8.0 19.3 0.00 0.20 0.00 71 1005.7
20260505205531 3 315 4.8 14.5 0.00 0.20 0.20 70 1005.6
20260505204531 3 293 6.4 14.5 0.00 0.20 0.20 69 1005.5
20260505203531 3 293 4.8 12.9 0.00 0.20 0.20 69 1005.5
20260505202531 3 270 6.4 14.5 0.00 0.20 0.20 68 1005.3
20260505201531 4 270 6.4 17.7 0.00 0.20 0.20 67 1005.3
20260505200533 4 293 6.4 14.5 0.00 0.20 0.20 66 1005.2
20260505195532 4 293 8.0 16.1 0.00 0.20 0.20 64 1005.1
20260505194532 4 293 6.4 14.5 0.00 0.20 0.20 63 1005.0
20260505193532 5 270 6.4 19.3 0.00 0.20 0.20 62 1004.9
20260505192531 5 270 6.4 16.1 0.00 0.20 0.20 59 1004.8
20260505191531 5 270 4.8 16.1 0.00 0.20 0.20 57 1004.8
20260505190532 5 270 3.2 11.3 0.00 0.20 0.20 56 1004.7
20260505185532 5 270 3.2 12.9 0.00 0.20 0.20 55 1004.7
20260505184530 5 270 1.6 11.3 0.00 0.20 0.20 55 1004.5
20260505183531 6 270 1.6 6.4 0.00 0.20 0.20 53 1004.5
20260505182551 6 270 3.2 11.3 0.00 0.20 0.20 51 1004.3
20260505181532 6 270 3.2 11.3 0.00 0.20 0.20 51 1004.2
20260505180532 6 270 3.2 12.9 0.00 0.20 0.20 51 1004.1
20260505175531 7 270 3.2 6.4 0.00 0.20 0.20 51 1004.0
20260505174532 7 293 3.2 19.3 0.00 0.20 0.20 50 1003.9
20260505173532 7 270 4.8 17.7 0.00 0.20 0.20 49 1003.8
20260505172612 8 270 3.2 11.3 0.00 0.20 0.20 47 1003.8
20260505171531 8 270 3.2 16.1 0.00 0.20 0.20 48 1003.8
20260505170531 8 293 1.6 9.7 0.00 0.20 0.20 47 1003.6
20260505165532 8 270 6.4 22.5 0.00 0.20 0.20 46 1003.7
20260505164531 9 293 8.0 20.9 0.00 0.20 0.20 45 1003.7
20260505163532 8 270 1.6 11.3 0.00 0.20 0.20 48 1003.6
20260505162532 8 293 8.0 20.9 0.00 0.20 0.20 46 1003.5
20260505161530 8 270 4.8 14.5 0.00 0.20 0.20 46 1003.5
20260505160532 9 270 8.0 20.9 0.00 0.20 0.20 45 1003.4
20260505152552 9 270 3.2 12.9 0.00 0.20 0.20 47 1003.2
20260505151532 9 270 8.0 24.1 0.00 0.20 0.20 46 1003.2
20260505150552 9 225 3.2 14.5 0.00 0.20 0.20 46 1003.0
20260505140533 9 270 8.0 17.7 0.03 0.20 0.20 48 1002.9
20260505124533 10 270 8.0 24.1 0.00 0.18 0.18 52 1002.5
20260505123531 9 293 11.3 30.6 0.00 0.18 0.18 52 1002.4
20260505122531 8 293 11.3 32.2 0.00 0.18 0.18 53 1002.4
20260505121531 9 293 12.9 35.4 0.00 0.18 0.18 50 1002.3
20260505120532 8 270 6.4 22.5 0.00 0.18 0.18 55 1002.3
20260505115534 8 270 9.7 25.7 0.00 0.18 0.18 57 1002.2
20260505114533 8 315 9.7 24.1 0.00 0.18 0.18 60 1002.1
20260505113532 8 270 14.5 27.4 0.00 0.18 0.18 55 1002.0
20260505112532 9 293 9.7 27.4 0.00 0.18 0.18 54 1001.9
20260505111552 8 293 11.3 29.0 0.00 0.18 0.18 57 1001.8
20260505110532 8 270 9.7 27.4 0.00 0.18 0.18 58 1001.8